Location: Fort Collins
(40.5850°N, 105.0840°W)
Time: 22:16:35
(UTC-06:00)

Daily predictions for brighter satellites

Satellite Brightness Start Highest point End
(mag) Time Altitude Azimuth Time Altitude Azimuth Time Altitude Azimuth
NOSS 3-1 (C) 3.7 20:58:30 10° S 21:04:00 46° ESE 21:10:02 10° NE
S3M 4.4 21:01:32 10° NNW 21:07:35 67° W 21:13:39 10° S
Cosmos 2112 Rocket 4.2 21:02:53 10° NNW 21:08:05 60° ENE 21:13:17 10° SSE
Cosmos 1437 Rocket 3.1 21:08:26 10° NNW 21:12:14 66° W 21:16:03 10° S
Cosmos 2219 Rocket 3.6 21:09:12 10° N 21:13:47 25° NE 21:18:20 10° ESE
COSMOS 2428 3.2 21:08:50 10° NNW 21:14:20 48° ENE 21:19:48 10° SE
deb Chang Zheng 4 3.6 21:10:40 10° NNE 21:14:58 64° ESE 21:19:17 10° S
Cosmos 1726 3.7 21:12:56 10° NNE 21:15:51 21° ENE 21:18:45 10° SE
Cosmos 1515 Rocket 4.4 21:13:09 10° NNW 21:17:28 53° W 21:21:42 10° S
Cosmos 304 Rocket 3.9 21:14:49 10° NNW 21:19:39 83° WSW 21:24:26 10° SSE
PSLV R/B 4.3 21:17:22 10° SE 21:20:04 28° ENE 21:22:45 10° N
Cosmos 2298 Rocket 4.5 21:15:49 10° S 21:20:46 41° ESE 21:25:44 10° NNE
Sich 1 4.2 21:17:52 10° SE 21:21:31 26° E 21:25:09 10° NNE
Cosmos 1939 Rocket 2.8 21:20:32 10° SSE 21:24:26 81° ENE 21:28:19 10° N
Cosmos 1151 Rocket 3.2 21:21:15 10° N 21:25:35 76° W 21:29:53 10° S
Cosmos 1633 Rocket 4.1 21:24:15 10° SSE 21:28:00 28° E 21:31:44 10° NNE
Meteor 1-4 Rocket 4.2 21:26:00 10° NNE 21:28:53 21° ENE 21:31:14 12° ESE
CZ-4B R/B 4.3 21:25:42 10° NNE 21:30:24 33° E 21:35:00 10° SSE
SL-23 DEB 4.0 21:28:50 10° NW 21:34:16 77° SW 21:37:10 15° SE
SPOT 5 2.9 21:30:43 10° SSE 21:35:16 66° ENE 21:40:07 10° N
DELTA 2 R/B (1) 4.4 21:30:34 10° W 21:35:39 37° SSW 21:40:00 13° SE
Cosmos 2237 4.3 21:30:10 10° NNW 21:35:55 76° ENE 21:41:10 12° SSE
USA 245 4.0 21:36:59 14° E 21:37:51 17° ENE 21:39:26 10° NNE
Cosmos 405 4.4 21:35:47 10° NNW 21:39:10 39° W 21:42:33 10° SSW
Cosmos 292 Rocket 4.4 21:38:39 10° N 21:43:09 41° ENE 21:46:35 16° SE
Cosmos 1680 Rocket 4.1 21:38:43 10° NNW 21:43:50 55° WSW 21:48:57 10° S
Cosmos 2219 3.5 21:38:18 10° SSW 21:44:02 75° WNW 21:49:48 10° NNE
Cosmos 1328 4.1 21:40:47 10° SSW 21:44:41 68° W 21:48:39 10° N
Cosmos 1805 Rocket 3.5 21:40:29 10° S 21:44:54 77° E 21:49:21 10° N
Cosmos 2237 Rocket 3.3 21:43:32 10° N 21:48:35 31° ENE 21:52:39 14° ESE
Aureole 3 4.4 21:42:32 10° S 21:49:01 78° W 21:54:07 10° N
MetOp-B 4.2 21:44:23 12° SSE 21:49:17 72° ENE 21:54:38 10° N
Cosmos 1271 Rocket 3.5 21:46:29 10° N 21:50:02 35° ENE 21:52:15 19° SE
H-2A R/B 3.6 21:46:30 13° ESE 21:50:03 23° ENE 21:54:15 10° NNE
Cosmos 2333 4.3 21:46:38 10° NNW 21:52:23 77° ENE 21:56:57 17° SSE
Cosmos 2082 4.4 21:49:35 11° SSE 21:54:18 33° ESE 21:59:21 10° NE
Cosmos 220 Rocket 4.3 21:50:33 10° S 21:54:43 46° ESE 21:58:59 10° NNE
Cosmos 1898 Rocket 3.4 21:50:09 10° S 21:55:18 74° ESE 22:00:31 10° NNE
Cosmos 1626 3.7 21:56:29 17° ESE 21:57:21 19° E 22:00:01 10° NE
Cosmos 2360 Rocket 3.5 21:53:07 10° NW 21:58:13 35° WSW 22:03:17 10° S
Cosmos 858 Rocket 4.4 21:53:21 10° S 21:58:32 72° ESE 22:03:43 10° NNE
OTV 4 1.3 21:58:27 10° SW 22:01:04 28° SSE 22:01:15 28° SSE
Cosmos 1703 3.7 21:59:02 20° SSE 22:01:19 43° E 22:05:02 10° NNE
H-2A R/B 3.4 21:57:32 10° SSW 22:01:44 38° W 22:05:58 10° NNW
SPOT 1/Viking Rocket 3.6 21:58:29 18° SSE 22:02:21 66° ENE 22:07:28 10° N
SL-14 R/B 3.2 21:58:30 10° S 22:02:27 87° E 22:06:29 10° N
NOAA 11 4.4 21:59:50 19° SE 22:03:41 55° ENE 22:09:00 10° N
Cosmos 1707 Rocket 3.6 21:59:58 10° N 22:04:20 77° W 22:07:55 15° S
YAOGAN 6 2.5 22:02:03 20° SSE 22:04:26 85° ENE 22:08:02 10° N
Cosmos 1666 Rocket 3.6 22:03:26 10° S 22:07:49 82° W 22:12:17 10° N
Cosmos 2150 Rocket 4.2 22:03:20 10° SSW 22:08:46 83° WNW 22:14:16 10° NNE
NOSS 3-1 (A) 3.5 22:03:10 10° SW 22:09:02 81° NW 22:15:35 10° NNE
Meteor 2-11 Rocket 4.5 22:04:10 10° N 22:10:19 85° W 22:15:35 14° S
Cosmos 2315 Rocket 4.5 22:05:53 10° NNW 22:11:56 59° W 22:17:59 10° S
Terra 3.0 22:09:58 19° ESE 22:12:17 28° ENE 22:16:20 10° N
SL-08 RB Rocket 3.9 22:11:03 24° SE 22:13:34 57° ENE 22:17:59 10° N
Meteor 1-27 4.4 22:07:57 10° NNW 22:13:36 71° W 22:18:23 14° S
Cosmos 1241 Rocket 4.4 22:09:51 10° SSW 22:15:54 60° ESE 22:22:03 10° NE
ERBS 2.2 22:17:37 10° SW 22:21:07 87° SE 22:24:36 10° NE
Cosmos 1470 Rocket 3.7 22:19:29 27° SSE 22:21:35 54° E 22:25:48 10° NNE
Cosmos 1300 3.8 22:18:19 10° NNW 22:21:56 41° W 22:24:51 15° SSW
Tiangong 1 1.4 22:19:03 10° W 22:22:08 64° N 22:24:22 17° ENE
Cosmos 1933 Rocket 3.8 22:20:22 27° SSE 22:22:35 54° E 22:26:56 10° NNE
Cosmos 2227 Rocket 2.2 22:21:20 11° S 22:26:45 65° ESE 22:32:22 10° NNE
Nadezhda 1 Rocket 4.0 22:22:26 10° N 22:28:30 64° E 22:32:01 26° SSE
OAO 2 Rocket 3.7 22:25:12 10° WSW 22:30:15 46° S 22:32:37 28° ESE
ATLAS 2AS CENTAUR R/B 3.0 22:23:56 10° SSW 22:31:12 62° ESE 22:39:04 10° NE
NOSS 0 Rocket 3.9 22:27:48 10° NNW 22:33:59 88° WSW 22:37:28 28° SSE
Lacrosse 4 Rocket 2.9 22:34:26 10° N 22:38:17 28° NE 22:40:03 22° E
Cosmos 1745 Rocket 4.0 22:36:47 16° S 22:41:53 84° W 22:48:05 10° N
USA 32 4.3 22:36:53 10° N 22:42:06 66° W 22:45:26 22° SSW
ATLAS 3B R/B 3.2 22:35:50 10° NNW 22:42:39 49° NE 22:46:35 23° ESE
Delta 2 Rocket 4.5 22:40:25 10° WSW 22:42:30 22° SW 22:42:30 22° SW
SL-16 R/B 3.1 22:38:24 10° N 22:43:41 38° ENE 22:46:17 25° ESE
Cosmos 1455 2.1 22:40:29 10° N 22:44:18 75° E 22:45:10 50° SSE
BREEZE-M DEB (TANK) 3.3 22:43:04 10° NW 22:45:01 33° NNE 22:45:53 27° ENE
CZ-4 R/B 4.2 22:40:32 10° N 22:45:25 67° WNW 22:49:17 16° SSW
DMSP B5D2-2 4.2 22:40:36 10° NNE 22:45:43 55° E 22:47:41 35° SSE
Cosmos 2333 Rocket 2.2 22:41:02 10° NNW 22:46:48 81° WSW 22:49:33 33° SSE
ARGOS 3.6 22:45:02 23° S 22:48:18 57° W 22:53:37 10° NNW
Cosmos 1709 Rocket 4.2 22:47:29 32° SE 22:49:58 50° E 22:55:49 10° NNE
Cosmos 1933 4.2 22:47:08 10° NNE 22:50:51 34° ENE 22:51:19 32° E
Cosmos 1937 Rocket 4.4 22:45:51 10° SW 22:50:54 49° WNW 22:55:56 10° N
Cosmos 1726 4.2 22:48:08 10° NW 22:51:09 23° W 22:53:31 13° SW
Cosmos 2297 Rocket 2.1 22:49:41 22° SSW 22:53:22 76° ESE 22:59:02 10° NNE
Cosmos 2219 Rocket 2.8 22:52:36 10° NW 22:57:57 48° WSW 23:00:38 27° SSW
COSMOS 2428 4.5 22:53:49 10° NW 22:58:13 24° WSW 23:02:01 12° SSW
Cosmos 990 Rocket 4.5 22:53:14 10° SSW 22:58:14 58° WNW 23:03:20 10° NNE
COSMOS 2455 3.1 22:52:30 10° NNW 22:58:27 58° ENE 23:01:03 33° ESE
Cosmos 192 4.2 22:54:13 10° NNW 22:59:10 89° SW 23:00:44 44° SSE
Cosmos 1386 Rocket 4.4 22:58:04 24° SSW 23:01:49 80° W 23:07:52 10° N
CARTOSAT-1 3.5 23:02:15 50° S 23:03:22 82° WSW 23:07:41 10° NNW
Cosmos 1862 Rocket 3.7 22:59:09 10° NNW 23:03:27 66° W 23:04:43 43° SSW
NOSS 2-3 (E) 4.2 23:05:34 44° SE 23:05:56 45° ESE 23:11:06 10° NE
Cosmos 1869 3.9 23:15:53 10° NNW 23:19:47 49° W 23:20:30 43° SW
Cosmos 1980 4.4 23:15:25 10° NW 23:20:44 44° WSW 23:22:45 32° SSW
IGS 5A 3.7 23:20:09 51° SW 23:20:49 59° W 23:24:57 10° NNW
Cosmos 2181 Rocket 4.0 23:15:57 10° N 23:22:22 77° E 23:24:39 43° SSE
Spot 2 4.4 23:17:36 10° N 23:22:41 79° WNW 23:24:20 42° SSW
SeaSat 1 3.8 23:23:17 23° E 23:25:03 29° NE 23:29:16 10° N
Cosmos 1269 Rocket 3.9 23:20:19 10° NNW 23:25:39 84° WSW 23:26:55 53° S
CZ-4C R/B 4.2 23:21:43 10° NNW 23:27:45 30° NE 23:33:36 12° E
H-2A R/B 2.8 23:27:08 33° SSW 23:29:06 47° W 23:34:22 10° NNW
Cosmos 2184 Rocket 4.5 23:28:32 38° ESE 23:29:50 43° E 23:35:37 10° NNE
Cosmos 1869 Rocket 3.4 23:30:51 72° SE 23:31:10 78° E 23:35:38 10° N
Cosmos 1626 4.1 23:31:10 20° WSW 23:32:35 25° WNW 23:35:44 10° NNW
Cosmos 2237 Rocket 3.1 23:27:28 10° NW 23:32:41 38° WSW 23:34:29 30° SW
NOSS 2-3 (C) 3.8 23:32:07 55° SSW 23:33:12 77° ESE 23:38:47 10° NE
Meteor 1-26 Rocket 4.3 23:28:41 10° N 23:34:18 67° E 23:35:36 51° SE
CZ-4B R/B 4.0 23:37:17 13° ENE 23:37:17 13° ENE 23:38:34 10° NE
Cosmos 389 Rocket 3.2 23:38:01 10° N 23:40:50 50° NNE 23:40:50 50° NNE
Cosmos 1125 Rocket 4.1 23:40:43 29° SW 23:43:16 55° WNW 23:48:31 10° N
Cosmos 44 Rocket 3.3 23:42:24 56° SSW 23:43:30 87° ESE 23:48:46 10° NNE
Cosmos 1048 Rocket 4.1 23:38:43 10° NNW 23:44:04 72° WSW 23:45:02 57° SSW
Okean 1-7 2.9 23:44:58 10° N 23:49:08 85° NNW 23:49:08 85° NNW
Terra 3.1 23:48:51 27° WSW 23:49:56 29° W 23:54:06 10° NW
ALOS 2 3.7 23:51:00 31° ENE 23:51:10 31° ENE 23:55:03 10° N
BREEZE-M DEB (TANK) 3.9 23:53:59 21° NE 23:53:59 21° NE 23:55:37 10° NE
Cosmos 158 Rocket 3.9 23:47:18 10° NNW 23:52:35 71° ENE 23:53:13 63° ESE
In-Cosmos 22 Rocket 4.1 23:53:00 60° SSE 23:54:03 79° E 23:59:51 10° NNE
